Weather History for Copper Mountain, CO

Change the Weather History Date:

Tuesday, January 21, 2014

  Actual Average (KLXV) Record (KLXV)
Temperature  
Mean Temperature 26 °F -  
Max Temperature 32 °F 30 °F 44 °F (2009)
Min Temperature 21 °F 4 °F -12 °F (1984)
Degree Days  
Heating Degree Days 38 48  
Month to date heating degree days 1008  
Since 1 July heating degree days 5909  
Cooling Degree Days 0 0  
Month to date cooling degree days 0  
Year to date cooling degree days 0  
Moisture  
Dew Point -30 °F    
Average Humidity 7    
Maximum Humidity 11    
Minimum Humidity 4    
Precipitation  
Precipitation 0.00 in 0.02 in 0.28 in (2012)
Month to date precipitation 0.43  
Year to date precipitation 0.43  
Sea Level Pressure  
Sea Level Pressure 30.37 in    
Wind  
Wind Speed 23 mph (West)    
Max Wind Speed 31 mph    
Max Gust Speed 45 mph    
Visibility 10 miles    
Events      
T = Trace of Precipitation, MM = Missing Value Source: NWS Daily Summary

Daily Weather History Graph

Daily Weather History Graph

Search for Another Location

Airport:

Trip Planner

Search our weather history database for the weather conditions in past years. The results will help you decide how hot, cold, wet, or windy it might be!

Date:

Astronomy

Jan. 21, 2014 Rise Set
Actual Time 7:20 AM MST 5:12 PM MST
Civil Twilight 6:51 AM MST 5:41 PM MST
Nautical Twilight 6:18 AM MST 6:13 PM MST
Astronomical Twilight 5:46 AM MST 6:45 PM MST
Moon 10:45 PM MST (1/21) 9:53 AM MST (1/21)
Length of Visible Light 10h 50m
Length of Day
9h 51m
Waning Gibbous, 74% of the Moon is Illuminated
Jan 21
Waning Gibbous
Jan 23
Last Quarter
Jan 30
New
Feb 6
First Quarter
Feb 14
Full

Hourly Weather History & Observations

Time (MST) Temp. Windchill Dew Point Humidity Pressure Visibility Wind Dir Wind Speed Gust Speed Precip Events Conditions
9:56 AM 26.6 °F 10.6 °F -27.4 °F 8% 30.45 in 10.0 mi West 28.8 mph 36.8 mph N/A   Clear
10:16 AM 26.6 °F 12.0 °F -29.2 °F 8% 30.46 in 10.0 mi West 23.0 mph 38.0 mph N/A   Clear
10:36 AM 28.4 °F 15.1 °F -23.8 °F 9% 30.46 in 10.0 mi West 20.7 mph 38.0 mph N/A   Clear
10:56 AM 28.4 °F 13.5 °F -27.4 °F 8% 30.46 in 10.0 mi West 26.5 mph 38.0 mph N/A   Clear
11:16 AM 28.4 °F 15.4 °F -22.0 °F 10% 30.46 in 10.0 mi West 19.6 mph 26.5 mph N/A   Clear
11:36 AM 30.2 °F 16.5 °F -25.6 °F 8% 30.45 in 10.0 mi West 24.2 mph 29.9 mph N/A   Clear
11:56 AM 30.2 °F 14.9 °F -29.2 °F 7% 30.44 in 10.0 mi West 31.1 mph 40.3 mph N/A   Clear
12:16 PM 30.2 °F 16.5 °F -29.2 °F 7% 30.43 in 10.0 mi West 24.2 mph 36.8 mph N/A   Clear
12:36 PM 30.2 °F 16.8 °F -23.8 °F 9% 30.41 in 3.0 mi West 23.0 mph 38.0 mph N/A   Haze
12:56 PM 32.0 °F 19.2 °F -23.8 °F 8% 30.41 in 7.0 mi West 23.0 mph 36.8 mph N/A   Clear
1:16 PM 32.0 °F 17.6 °F -29.2 °F 6% 30.40 in 10.0 mi West 29.9 mph 35.7 mph N/A   Clear
1:36 PM 32.0 °F 17.9 °F -29.2 °F 6% 30.38 in 10.0 mi West 28.8 mph 44.9 mph N/A   Clear
1:56 PM 32.0 °F 17.4 °F -29.2 °F 6% 30.37 in 10.0 mi West 31.1 mph 43.7 mph N/A   Clear
2:16 PM 32.0 °F 19.5 °F -25.6 °F 7% 30.38 in 10.0 mi West 21.9 mph 29.9 mph N/A   Clear
2:36 PM 32.0 °F 18.9 °F -27.4 °F 7% 30.38 in 10.0 mi West 24.2 mph 36.8 mph N/A   Clear
2:56 PM 32.0 °F 18.4 °F -25.6 °F 7% 30.39 in 10.0 mi West 26.5 mph 32.2 mph N/A   Clear
3:16 PM 32.0 °F 17.6 °F -25.6 °F 7% 30.38 in 10.0 mi West 29.9 mph 33.4 mph N/A   Clear
3:36 PM 32.0 °F 17.4 °F -23.8 °F 8% 30.38 in 10.0 mi West 31.1 mph 41.4 mph N/A   Clear
3:56 PM 30.2 °F 14.9 °F -22.0 °F 10% 30.36 in 10.0 mi West 31.1 mph 38.0 mph N/A   Clear
4:16 PM 28.4 °F 12.5 °F -23.8 °F 9% 30.37 in 10.0 mi West 31.1 mph 38.0 mph N/A   Clear
4:36 PM 28.4 °F 13.5 °F -25.6 °F 9% 30.37 in 10.0 mi West 26.5 mph 33.4 mph N/A   Clear
4:56 PM 26.6 °F 11.1 °F -27.4 °F 8% 30.37 in 10.0 mi West 26.5 mph 32.2 mph N/A   Clear
5:16 PM 26.6 °F 13.4 °F -23.8 °F 10% 30.38 in 10.0 mi West 18.4 mph - N/A   Clear
5:36 PM 24.8 °F 12.4 °F -23.8 °F 11% 30.38 in 10.0 mi West 15.0 mph 19.6 mph N/A   Clear
5:56 PM 24.8 °F 15.3 °F -25.6 °F 10% 30.38 in 10.0 mi West 9.2 mph - N/A   Clear
6:16 PM 24.8 °F - -27.4 °F 9% 30.37 in 10.0 mi North - - N/A   Clear
6:36 PM 23.0 °F 11.1 °F -25.6 °F 11% 30.37 in 10.0 mi WSW 12.7 mph 18.4 mph N/A   Clear
6:56 PM 23.0 °F 8.7 °F -31.0 °F 8% 30.36 in 10.0 mi West 18.4 mph 23.0 mph N/A   Clear
7:16 PM 24.8 °F 11.1 °F -32.8 °F 7% 30.36 in 10.0 mi West 18.4 mph 26.5 mph N/A   Clear
7:36 PM 24.8 °F 10.0 °F -32.8 °F 7% 30.34 in 10.0 mi West 21.9 mph 27.6 mph N/A   Clear
7:56 PM 24.8 °F 11.5 °F -34.6 °F 6% 30.34 in 10.0 mi WSW 17.3 mph 26.5 mph N/A   Clear
8:16 PM 23.0 °F 8.0 °F -32.8 °F 7% 30.34 in 10.0 mi West 20.7 mph 25.3 mph N/A   Clear
8:36 PM 24.8 °F 10.3 °F -36.4 °F 6% 30.33 in 10.0 mi West 20.7 mph 24.2 mph N/A   Clear
8:56 PM 23.0 °F 9.2 °F -36.4 °F 6% 30.33 in 10.0 mi West 17.3 mph - N/A   Clear
9:16 PM 24.8 °F 14.6 °F -43.6 °F 4% 30.33 in 10.0 mi WSW 10.4 mph 17.3 mph N/A   Clear
9:36 PM 23.0 °F 11.7 °F -36.4 °F 6% 30.33 in 10.0 mi WSW 11.5 mph 17.3 mph N/A   Clear
9:56 PM 24.8 °F 12.9 °F -43.6 °F 4% 30.32 in 10.0 mi WSW 13.8 mph 20.7 mph N/A   Clear
10:16 PM 23.0 °F 11.7 °F -36.4 °F 6% 30.32 in 10.0 mi WSW 11.5 mph - N/A   Clear
10:36 PM 23.0 °F 10.6 °F -41.8 °F 5% 30.32 in 10.0 mi WSW 13.8 mph 19.6 mph N/A   Clear
10:56 PM 23.0 °F 10.6 °F -41.8 °F 5% 30.31 in 10.0 mi WSW 13.8 mph 21.9 mph N/A   Clear
11:16 PM 21.2 °F 8.9 °F -32.8 °F 8% 30.31 in 10.0 mi WSW 12.7 mph 19.6 mph N/A   Clear
11:36 PM 21.2 °F 8.9 °F -32.8 °F 8% 30.31 in 10.0 mi WSW 12.7 mph 19.6 mph N/A   Clear
11:56 PM 23.0 °F 9.2 °F -38.2 °F 6% 30.30 in 10.0 mi West 17.3 mph - N/A   Clear